CZ-6A DEB

Satellite information

Favourite Embed

Satellite Type and Status

DEBRISIN ORBIT

Key statistics

Satellite CZ-6A DEB at a glance.

Uptime

909

Days in orbit

Revolutions

≈ 14.5

Per day

Orbit

SSO

Sun Synchronous Orbit

Inclination

98.6

Latest

Satellite identification and parameters

Extended collection of information and parameters for CZ-6A DEB.

Object identification

Identified? True

Debris? True

Object name: CZ-6A DEB

International designator: 2022-151YZ

Object number (NORAD): 55551

Object ID (CCSDS): 55551

Country: PEOPLES REPUBLIC OF CHINA (PRC)

Current information (Y/N): Y

RCS size: SMALL

Orbital parameters

Period: 99.486 minutes

Inclination: 98.6406 deg

SMA: 7112.145 km

Apoapsis: 814.3 km

Periapsis: 653.721 km

RAAN: 161.2051 deg

Eccentricy: 0.0112891

Argument of periapsis: 121.4227 deg

Mean anomaly: 239.8063 deg

Mean motion: 14.47444209 rev/day

Mean motion (dot): 0.00005868 rev/day2

B* drag term: 0.0014873 1/REarth

Two-line elements (TLE)

Creation date: May 8, 2025, 3:01 a.m.

Reference frame: TEME

Reference center: EARTH

Epoch: May 7, 2025, 5:35 p.m. UTC

TLE line 0: 0 CZ-6A DEB

TLE line 1: 1 55551U 22151YZ 25127.73298577 .00005868 00000-0 14873-2 0 9999

TLE line 2: 2 55551 98.6406 161.2051 0112891 121.4227 239.8063 14.47444209124235

Live tracking on map

Real-time ground track for satellite CZ-6A DEB.

In-orbit conjunctions

A list of the most updated potential collisions computed for object CZ-6A DEB.

Target Orbit TCA Probability of collision Miss distance Type
SL-8 DEB LEO 2024-09-06 18:12:00 0.0003214176 138.0 (m) DEBRIS
SL-8 R/B LEO 2024-07-10 21:18:00 0.0001165225 479.0 (m) ROCKET BODY
TAURUS R/B LEO 2024-05-31 03:33:06 0.0001280146 464.0 (m) ROCKET BODY

Associated space launch

Chinese satellite reported for atmospheric/ocean/environmental/spatial parameter research purposes, details TBD.

CZ-6A DEB was lifted into orbit during the mission ‘Long March 6A | Yunhai 3’, on board a Long March 6A space rocket.

The launch took place on Nov. 11, 2022, 10:52 p.m. from Launch Complex 9A.

For more information about the launch, click the button.

Launch to space Long March 6A | Yunhai 3
Long March 6A | Yunhai 3

Agency: N/A

Status: Launch Successful

Launch date: Nov. 11, 2022, 10:52 p.m. UTC

Rocket: Long March 6A

Launch pad: Launch Complex 9A

Location: Taiyuan Satellite Launch Center, People's Republic of China

...

Latest news about this satellite

There are no fresh news available about this satellite. Check back as we update our databases every day.


Newsletter sign-up

Weekly statistics, charts and insights to help you stay on top of the space industry.